Location: *
(46.1833°N, 22.7667°E)
Time: 09:15:03
(UTC+00:00)

USA 186 - Pass Details

Date: 17 September 2019
Orbit: 261 x 450 km, 96.9° (Epoch: 07 October)

Event Time Altitude Azimuth Distance (km) Brightness Sun altitude
Exits shadow 17:16:18 - 131° (SE) 1,810 4.4 -7.5°
Reaches altitude 10° 17:16:59 10° 126° (SE) 1,564 4.1 -7.6°
Maximum altitude 17:19:47 25° 69° (ENE) 956 3.1 -8.1°
Drops below altitude 10° 17:22:39 10° 13° (NNE) 1,600 4.7 -8.6°
Sets 17:24:56 0° 360° (N) 2,478 5.8 -9.0°
